Terminal Aerodrome Forecast
Issued by NWS Pueblo, CO

Home | Current Version | Previous Version | Text Only | Print | Product List | Glossary On
Versions: 1 2 3 4 5 6 7 8 9 10 11 12 13 14 15 16 17 18 19 20 21 22 23 24 25 26 27 28 29 30 31 32 33 34 35 36 37 38
000
FTUS45 KPUB 280407 AAC
TAFPUB
TAF AMD
KPUB 280407Z 2804/2824 33013KT P6SM SCT060 SCT080 SCT150
     FM280500 34010KT P6SM SCT080 SCT140
     FM281800 36010KT P6SM SCT060 BKN140
     FM282000 01010KT P6SM VCTS SCT060CB BKN100=

USA.gov is the U.S. government's official web portal to all federal, state and local government web resources and services.